Location: Brunembert
(50.7122°N, 1.8935°E)
Time: 09:26:50
(UTC+00:00)

Cosmos 1980 - Pass Details

Date: 22 April 2021
Orbit: 838 x 848 km, 71.0° (Epoch: 16 May)

Event Time Altitude Azimuth Distance (km) Brightness Sun altitude
Rises 19:29:26 0° 330° (NNW) 3,420 7.9 -5.2°
Reaches altitude 10° 19:31:54 10° 333° (NNW) 2,482 7.1 -5.5°
Maximum altitude 19:37:37 75° 58° (ENE) 882 3.8 -6.3°
Drops below altitude 10° 19:43:18 10° 145° (SE) 2,470 5.6 -7.1°
Enters shadow 19:44:20 - 146° (SE) 2,862 5.9 -7.3°
